RH
52 51 50 51 49 46 40 26 22 27 28 29 31 29 18 7 3 3 2 3 5 5 5 4 4 3 2 2 2 2 2 2 2 2 2 2 2 2 2 3 2 3 3 3 3 3 3 3 4 3 4 4 5 7 9 9 11 14 16 16 17 15 14 13 12 11 9 8 8 9 9 9 10 10 11 11 12 13 14 14 13 12 10 9 10 11 10 11
54 54 53 53 50 45 38 24 18 20 20 20 22 24 16 5 3 3 3 4 5 5 3 3 3 3 2 2 2 2 2 2 2 2 2 2 3 3 3 3 3 3 3 3 3 4 4 4 4 4 4 4 5 6 8 10 12 16 15 15 15 13 13 12 11 10 9 9 9 9 9 10 10 10 11 11 13 14 15 14 13 12 10 10 11 11 11 11
55 54 53 52 47 44 35 21 15 13 10 8 10 14 10 4 3 3 4 5 5 4 3 2 3 2 2 2 2 2 2 2 2 2 3 3 3 3 3 3 3 4 4 4 4 4 4 5 4 5 5 5 6 7 9 11 13 14 13 13 13 12 12 10 9 9 8 9 9 9 10 10 10 11 11 12 13 14 15 15 13 12 11 11 11 11 12 13
54 52 50 50 46 42 33 20 13 9 7 6 5 7 6 3 3 4 5 5 4 3 2 2 2 2 2 2 2 2 2 2 2 3 3 3 3 3 3 3 4 4 5 5 5 5 5 5 5 5 6 6 7 7 9 10 11 12 10 10 11 10 10 9 9 9 9 10 10 10 10 10 11 11 11 12 13 14 16 15 14 12 11 11 12 13 13 14
50 51 47 47 44 39 29 19 13 8 7 7 6 5 4 4 5 6 6 4 3 3 2 2 2 2 2 2 2 2 2 2 3 3 3 3 4 3 4 4 5 5 5 5 5 5 5 6 6 6 6 6 6 7 8 8 8 9 8 8 8 8 8 9 9 9 10 11 11 11 11 11 11 11 12 13 13 15 17 16 14 11 11 12 13 14 14 16
44 49 47 45 42 35 25 18 13 9 8 7 6 6 5 6 7 8 6 3 3 2 2 2 2 2 2 2 3 3 4 5 3 4 4 4 4 4 5 5 5 5 5 5 5 6 6 6 6 7 6 6 6 6 7 7 7 7 7 7 8 8 9 9 10 10 11 12 12 11 11 11 11 11 12 12 13 16 18 17 14 11 11 12 13 15 16 18
40 44 47 45 42 32 24 21 15 9 8 7 7 7 6 6 6 7 7 3 2 2 2 3 2 3 3 3 3 4 6 5 4 4 4 4 5 5 5 5 5 6 6 6 6 6 6 7 7 7 6 6 6 6 7 7 7 7 7 8 8 9 10 10 10 11 11 11 11 11 11 11 11 12 11 11 13 16 18 17 14 11 12 13 14 17 18 20
40 42 43 42 40 29 22 23 16 8 8 7 7 7 7 6 4 5 7 4 2 3 3 3 3 3 3 3 4 4 5 4 3 4 5 5 5 5 5 6 6 6 6 6 6 6 7 7 7 7 7 7 6 7 7 7 8 8 8 8 9 10 10 10 10 11 11 11 11 11 12 12 12 13 12 11 12 14 18 18 14 12 12 14 16 19 21 23
41 39 39 40 35 21 19 23 17 8 7 8 6 7 6 4 3 3 6 5 3 3 3 4 3 3 3 3 3 3 4 3 4 5 5 5 5 5 5 6 6 6 6 6 7 7 7 7 7 7 7 7 7 7 7 8 9 9 9 9 9 10 10 10 10 10 10 11 12 13 13 13 13 13 13 13 13 14 17 17 14 13 13 15 18 20 23 25
40 37 37 35 24 13 17 20 14 8 7 8 5 6 5 3 3 3 4 4 3 3 3 3 3 3 3 3 3 4 4 4 5 5 5 5 5 6 6 6 6 6 7 7 7 7 7 7 7 7 7 7 7 8 8 8 9 9 9 10 10 10 11 11 11 11 11 12 12 13 13 13 13 13 13 13 13 14 16 16 13 13 14 16 18 20 23 26
40 37 33 24 14 13 17 14 9 7 7 7 4 4 4 3 3 3 3 3 3 3 2 2 3 3 3 4 4 4 4 5 5 6 6 5 6 6 7 7 7 7 7 7 7 7 7 7 7 7 8 8 8 8 9 9 9 10 10 11 11 11 12 13 12 12 12 13 13 13 13 13 13 13 14 14 12 13 14 14 13 13 15 16 17 20 23 28
37 31 24 18 17 18 16 11 8 7 6 5 3 3 3 3 3 3 3 3 3 2 2 3 2 3 3 4 4 5 5 6 6 6 6 6 6 7 7 7 8 8 7 7 7 7 7 6 7 7 8 8 9 9 9 10 10 10 11 11 12 11 12 13 13 13 13 14 14 15 14 12 13 14 14 14 12 12 13 13 13 14 15 15 17 20 25 30
23 20 18 20 21 17 13 10 8 7 5 3 3 3 3 3 3 3 3 3 3 3 2 3 3 3 3 4 4 5 6 7 7 7 6 6 7 7 8 8 8 8 8 8 7 7 7 7 7 8 8 9 9 10 10 10 10 10 11 12 12 13 13 14 14 14 15 17 16 18 18 12 13 15 13 13 13 13 13 13 14 14 15 15 17 21 26 31
13 19 24 24 20 13 10 9 7 7 4 3 3 2 3 3 3 3 3 3 3 3 3 3 3 3 3 4 5 6 7 7 7 7 7 7 8 8 8 8 8 9 8 8 8 7 7 7 7 8 9 9 10 11 11 11 11 11 12 12 13 14 14 14 15 16 18 19 18 21 21 14 14 15 13 14 14 14 14 13 14 14 16 16 18 21 26 31
11 21 26 24 18 11 8 7 6 5 4 3 3 2 3 2 3 3 3 3 3 3 3 3 4 3 4 5 6 7 7 7 7 7 7 7 8 8 8 8 9 8 8 9 8 8 7 7 7 8 9 10 10 11 12 12 12 12 13 14 14 15 15 15 17 18 20 21 21 23 23 16 15 16 15 15 15 16 16 15 15 16 17 18 18 21 26 32
9 14 17 16 13 8 6 5 4 4 3 3 3 3 3 3 3 3 3 3 3 4 4 4 4 4 4 5 6 7 7 8 8 8 8 8 9 9 9 9 9 9 9 9 8 8 8 8 8 9 10 10 10 11 12 13 12 13 14 14 15 15 16 16 18 20 21 22 22 23 23 17 16 17 16 15 16 18 18 17 17 17 18 18 19 22 27 32
9 9 10 9 8 6 3 3 3 4 3 3 4 3 3 3 4 4 3 4 4 4 4 5 5 5 6 7 7 8 8 8 8 8 8 9 9 9 9 9 9 9 9 9 9 8 8 8 9 9 10 11 11 11 12 13 13 14 15 15 15 16 17 17 19 20 21 22 21 22 21 18 17 18 17 16 17 20 20 19 19 19 19 20 22 25 30 32
8 8 7 5 5 4 3 4 4 4 3 4 4 4 4 4 4 4 4 4 4 5 5 6 6 6 8 8 7 8 8 8 8 9 9 9 10 10 10 9 9 10 10 9 9 9 9 9 9 10 10 11 11 11 12 13 13 14 15 16 16 17 18 19 20 21 21 21 21 21 21 19 18 19 18 17 20 21 21 21 21 20 20 22 26 29 31 30
8 6 4 4 5 4 4 5 4 4 4 5 4 5 4 4 4 4 5 5 5 6 7 8 7 8 10 9 8 9 8 8 9 9 9 10 10 10 10 10 10 10 10 10 9 9 9 9 10 10 10 11 11 12 12 13 13 15 16 16 18 18 18 19 21 22 22 22 20 21 21 18 17 18 19 20 21 21 21 22 21 20 22 25 28 30 30 28
9 7 4 4 5 4 5 5 5 5 5 6 5 5 5 5 5 5 6 5 5 7 7 9 8 9 11 9 8 9 9 9 9 9 10 10 10 10 11 10 10 10 10 9 10 10 9 10 10 10 11 11 12 12 13 14 15 16 17 18 19 19 18 19 21 22 23 23 20 21 22 18 16 17 20 22 22 21 21 22 21 22 25 27 29 30 29 27
10 9 6 5 4 5 6 5 6 6 6 6 6 7 6 7 7 6 6 6 6 7 7 9 9 9 10 9 8 9 9 9 9 10 10 11 11 11 11 11 11 10 10 10 10 10 10 10 10 11 12 12 13 14 15 16 17 17 19 19 19 20 19 19 21 22 23 24 21 22 23 17 15 19 21 22 21 20 22 22 23 25 27 28 28 28 27 26
8 9 7 5 4 5 6 6 8 7 8 7 7 9 8 8 9 7 8 7 7 7 8 9 9 9 9 8 9 9 9 10 9 10 10 11 11 12 12 11 11 10 10 10 10 11 10 10 11 11 12 13 15 16 17 18 19 19 20 20 20 21 21 20 21 22 24 26 23 23 23 17 15 18 20 20 20 21 23 23 25 26 26 26 26 26 26 26
6 8 6 4 5 6 7 8 9 9 9 9 9 9 9 9 9 9 9 9 8 8 9 9 9 9 9 9 9 9 9 9 10 10 10 10 11 11 12 11 11 10 10 11 11 12 11 11 12 12 13 15 16 16 18 19 19 20 20 21 21 21 22 22 22 23 25 27 25 24 24 18 15 17 18 20 21 22 24 24 25 25 24 24 24 24 25 24
6 6 5 5 5 7 8 9 9 9 9 8 9 9 9 9 10 11 10 10 10 9 9 9 9 9 9 9 9 9 10 9 10 10 10 10 10 11 11 10 11 10 11 12 12 13 14 13 13 13 14 14 15 17 17 18 19 20 21 22 22 21 23 25 25 26 23 24 24 24 26 20 15 18 19 20 22 23 25 25 25 25 22 22 23 24 25 22
6 5 4 4 6 7 9 9 9 9 8 7 7 8 9 9 10 10 10 9 9 9 9 9 9 9 9 9 9 9 10 9 10 9 10 10 10 11 11 11 11 10 12 12 12 14 14 15 15 15 14 14 15 16 17 19 19 20 21 22 22 22 24 25 27 27 25 25 24 25 34 31 18 17 21 20 22 24 25 25 26 25 23 22 23 24 24 21
6 5 5 4 5 6 8 9 9 8 8 7 6 7 8 8 9 9 9 10 10 9 10 10 10 10 10 10 10 10 9 9 10 9 10 10 10 11 11 11 12 11 12 12 12 13 14 15 15 15 15 15 16 17 18 20 20 21 22 22 24 24 25 26 27 29 30 29 27 28 38 38 22 16 20 21 21 24 25 26 26 26 24 23 24 24 23 21
6 5 5 5 5 5 7 8 8 8 7 7 7 8 8 8 8 8 8 11 12 12 13 12 11 12 13 13 12 11 10 10 11 11 11 11 11 11 11 12 12 12 12 12 13 13 14 15 14 14 15 15 16 17 18 19 21 22 22 23 26 25 26 27 27 30 32 31 29 28 34 41 31 18 19 22 21 23 24 26 28 26 26 25 24 23 22 21
5 5 5 5 5 5 7 8 8 9 8 8 7 7 8 8 8 8 11 12 12 14 15 14 13 12 13 13 12 11 10 11 11 12 12 11 11 11 11 11 11 12 12 12 13 13 14 15 14 15 15 15 16 17 19 20 21 23 23 25 26 26 28 28 28 31 34 33 31 27 30 42 37 19 19 23 20 22 25 27 28 27 28 27 25 24 22 22
5 5 5 6 6 7 9 10 10 10 9 8 7 7 7 8 7 9 13 13 12 14 14 15 13 12 12 12 11 11 10 10 10 11 11 11 11 11 11 11 11 12 11 12 13 13 14 15 16 17 15 16 16 17 20 21 22 23 24 25 26 28 28 27 29 31 36 40 34 28 31 42 38 20 19 24 20 23 26 27 29 29 29 28 25 24 23 24
6 6 6 7 8 10 10 10 10 10 9 7 6 6 6 7 8 12 15 13 14 16 15 15 13 12 12 11 11 11 10 10 10 11 11 11 11 11 12 12 12 12 12 13 13 13 14 14 16 17 17 17 16 18 21 21 24 24 24 27 27 29 28 28 33 31 39 48 37 28 31 39 41 25 17 23 22 24 27 28 29 30 31 30 26 26 27 28
7 6 7 8 10 10 10 11 11 9 8 6 5 5 5 7 10 16 16 12 13 15 13 13 12 11 11 10 10 10 10 11 10 11 11 11 11 11 12 12 12 13 12 13 13 13 14 14 15 16 16 18 17 19 22 23 25 24 26 29 28 29 27 28 33 32 45 55 39 30 33 39 44 30 17 22 24 25 29 29 29 30 32 33 30 30 32 33
7 6 7 9 10 9 9 10 10 9 7 5 4 5 5 8 11 12 13 11 12 13 12 12 11 10 11 10 10 10 10 11 11 11 11 11 11 11 12 13 13 14 14 14 14 14 14 14 15 16 17 18 19 21 23 23 25 25 28 29 32 39 41 44 48 43 48 50 35 32 37 39 39 26 19 24 25 28 30 28 28 32 34 36 36 34 36 38
7 7 7 8 8 8 9 10 10 9 6 5 4 4 5 10 11 9 10 12 12 12 12 11 10 10 10 10 10 11 11 11 11 11 11 11 12 12 12 13 13 14 15 15 15 15 15 15 15 17 19 19 20 22 23 24 26 27 29 30 34 44 55 67 68 54 47 42 33 36 43 40 32 24 23 26 26 28 28 27 30 34 37 40 40 38 38 41
8 7 7 7 7 7 9 10 10 8 6 5 4 4 6 9 9 8 11 12 12 12 11 10 9 9 9 9 10 11 12 12 12 12 12 12 13 13 13 13 14 15 16 16 17 19 20 19 16 17 19 20 21 22 23 25 28 28 30 31 33 36 43 55 60 51 44 44 41 41 43 38 28 24 26 26 26 27 26 29 32 35 40 43 42 41 41 43
10 8 7 7 7 8 10 10 9 7 5 5 4 4 6 6 7 8 10 11 11 11 10 10 10 9 9 10 11 12 13 14 13 13 13 13 13 13 14 14 15 16 17 18 19 21 22 20 17 17 19 20 21 22 23 25 29 30 30 32 34 34 34 40 46 43 43 56 59 49 40 33 26 25 26 25 25 27 29 31 33 38 43 44 44 44 44 47
10 9 7 7 8 9 10 9 8 6 4 5 5 5 5 5 7 8 9 10 10 10 10 10 10 11 12 13 13 14 14 15 14 14 14 14 14 15 15 16 17 18 19 19 20 22 21 19 18 19 19 20 21 23 24 26 29 31 32 33 34 35 37 40 43 42 49 63 60 43 36 34 29 27 25 24 26 28 31 33 36 42 44 44 45 47 51 57
8 8 8 8 10 10 9 7 6 5 4 5 5 5 7 7 8 9 9 10 10 10 10 10 11 14 14 14 14 14 14 15 15 15 15 15 15 16 16 17 18 19 20 21 21 22 22 21 20 20 20 21 22 23 25 26 29 31 33 34 33 36 40 41 45 53 65 74 60 39 36 38 34 30 26 26 30 32 32 35 39 43 43 46 51 57 62 64
8 10 10 10 9 7 6 6 5 5 5 5 6 7 8 8 8 9 9 10 10 10 10 10 12 14 14 14 14 14 14 15 15 16 17 17 16 17 18 18 19 20 20 22 22 23 24 24 22 21 21 22 23 25 26 26 28 31 32 33 33 37 41 42 48 57 67 77 68 46 39 40 36 32 30 31 33 33 33 36 41 44 48 56 62 65 65 58
11 11 9 8 7 6 7 7 6 7 6 6 7 8 9 9 9 9 10 10 11 10 11 11 12 13 13 14 14 14 15 15 16 17 17 18 18 18 19 20 20 20 21 22 23 23 25 27 26 24 23 23 24 25 26 26 28 30 31 33 34 37 41 43 48 51 55 69 75 62 49 42 36 33 32 33 32 33 35 38 43 50 58 64 64 63 60 56
11 9 7 6 7 8 9 9 8 8 8 8 8 8 9 9 9 10 10 10 11 11 11 12 13 13 13 14 14 14 15 15 16 18 18 18 18 18 19 20 21 22 23 23 24 24 26 28 28 25 24 25 25 25 26 27 30 31 32 33 34 37 42 45 47 46 48 63 81 83 65 41 34 34 32 32 33 34 38 41 47 55 59 60 57 57 59 58
8 7 7 8 9 9 9 9 9 9 9 9 9 9 9 9 9 10 10 10 11 11 12 12 12 13 13 13 14 14 15 16 16 17 18 18 18 19 20 21 22 23 23 24 24 25 27 29 29 27 25 24 24 26 27 28 30 32 33 33 34 38 42 49 56 50 45 52 63 75 68 42 32 34 30 31 35 36 41 46 52 56 55 53 52 54 55 52
6 8 9 9 9 9 9 9 8 8 8 8 8 8 8 8 8 9 10 10 11 11 11 12 12 13 13 13 14 15 16 16 15 16 18 18 19 21 21 22 22 23 23 24 25 26 27 30 30 27 25 26 27 27 26 27 29 30 32 32 33 39 41 48 57 50 45 49 47 59 69 50 33 32 31 33 37 40 45 50 53 54 51 49 49 48 46 44
8 9 10 10 9 9 9 8 8 8 7 7 7 7 7 7 7 8 9 9 10 10 10 11 12 12 13 13 13 14 15 16 16 16 17 18 19 20 22 22 23 23 25 25 25 27 29 32 32 29 27 26 24 24 24 27 29 30 33 33 33 38 39 43 49 45 46 51 47 57 69 50 31 31 33 36 41 44 50 53 53 51 48 47 45 41 39 38
10 9 9 9 9 9 9 8 7 7 7 7 6 6 6 6 7 7 8 8 8 9 9 10 11 11 12 12 13 13 14 16 16 16 17 18 19 21 22 22 24 24 26 26 27 29 31 33 35 35 36 34 31 29 28 29 33 33 34 35 35 37 40 43 46 48 51 51 47 57 62 43 31 34 36 40 46 50 54 54 52 50 46 40 32 24 23 24
9 8 8 8 8 8 7 7 7 6 7 6 6 6 6 6 7 7 7 7 7 8 9 9 10 10 11 11 12 13 13 15 16 16 16 17 19 20 21 22 24 25 26 28 28 30 32 32 33 36 42 46 42 37 34 34 37 37 35 37 39 40 44 45 46 51 55 51 48 54 52 39 34 38 42 47 52 55 57 55 53 48 36 22 14 12 14 18
8 7 6 6 6 6 6 5 5 5 5 5 4 5 5 5 6 6 6 6 6 7 7 8 8 9 10 10 11 12 12 13 15 16 16 17 18 19 21 22 23 24 26 28 28 31 34 32 32 34 37 38 36 33 35 38 40 39 36 37 39 42 45 49 53 54 51 51 52 49 45 43 42 43 47 53 58 61 59 55 48 34 18 11 12 15 18 22
6 5 5 4 4 5 4 3 4 3 3 4 3 3 4 4 5 5 5 6 5 6 6 6 7 8 9 10 10 11 11 12 14 15 15 16 17 19 20 20 22 23 24 26 28 32 34 32 31 33 33 32 32 32 35 39 39 38 36 35 37 41 44 50 54 48 44 54 58 47 44 49 48 48 53 60 64 62 55 45 29 14 10 15 19 21 25 29
5 4 4 3 3 4 3 3 3 3 3 3 3 3 3 4 4 4 4 5 4 5 5 5 7 8 8 9 11 11 12 13 14 13 14 15 16 18 19 19 20 22 22 25 28 30 33 33 30 32 33 31 31 32 34 37 37 36 35 35 38 43 45 47 47 43 48 60 58 48 49 53 51 54 61 65 64 55 40 25 12 8 14 20 22 26 30 34
4 3 3 3 3 3 3 3 3 3 3 3 3 3 4 4 4 4 4 4 4 4 5 5 7 8 8 9 11 12 14 14 13 13 14 15 15 16 18 18 19 20 21 24 26 28 33 34 32 34 35 30 29 33 33 34 36 35 34 37 41 44 45 46 46 47 54 57 53 52 56 55 56 62 66 64 58 42 24 13 8 11 16 19 23 27 31 36
3 2 2 2 2 3 3 3 3 3 3 3 3 4 4 4 4 4 4 4 4 5 5 6 7 7 7 8 10 12 14 14 13 13 14 15 15 16 18 18 18 19 20 22 25 28 33 35 34 37 38 31 29 32 33 36 39 38 38 41 44 44 44 47 49 49 53 55 55 58 61 58 59 64 65 61 48 29 15 10 11 14 18 20 23 27 31 36
2 3 2 2 2 3 3 3 3 3 3 3 4 4 4 4 4 4 4 5 5 5 6 6 6 6 7 8 9 11 12 12 12 14 14 15 16 16 17 17 18 19 20 23 25 27 32 36 35 41 45 36 30 33 37 38 40 39 41 45 45 46 48 50 49 49 53 56 56 59 63 62 60 63 63 53 33 17 12 12 14 18 22 23 25 28 31 31
3 3 3 3 3 3 3 3 3 3 3 4 4 3 4 4 5 5 5 5 5 5 5 6 6 6 7 8 9 10 11 11 12 13 14 15 15 15 16 17 18 20 22 24 28 30 33 37 38 46 51 41 34 39 40 38 40 42 43 46 48 50 52 52 50 50 52 55 58 61 61 61 64 62 51 34 18 12 15 16 17 20 23 26 27 27 26 23
Wind_Speed
7 6 6 5 4 3 3 4 5 6 7 7 8 8 8 7 4 2 3 4 5 5 5 6 7 7 7 6 6 6 5 4 3 3 3 3 3 2 3 2 2 2 3 3 3 2 2 2 3 3 4 6 7 9 9 8 8 9 8 8 8 8 8 9 11 11 12 13 13 13 13 13 13 14 14 15 14 14 13 12 12 12 11 9 8 9 12 15
7 7 7 6 5 4 4 4 6 7 7 8 8 9 8 6 4 4 5 6 6 6 6 8 8 8 7 7 6 5 4 4 3 3 3 3 3 3 3 3 3 3 3 3 3 2 2 2 3 4 5 6 6 7 8 8 8 8 7 8 8 8 9 10 12 13 13 13 14 14 14 13 14 14 14 15 14 14 13 13 12 11 10 8 9 12 14 16
8 7 7 7 5 5 4 4 5 7 7 7 7 7 6 5 5 6 6 7 7 6 7 8 9 8 7 7 6 5 3 3 3 4 4 3 4 4 4 4 4 4 4 4 3 3 3 3 3 4 5 6 6 7 8 8 7 6 7 9 9 9 10 12 13 14 13 14 15 15 15 14 14 14 14 14 15 14 14 13 12 11 10 9 11 14 15 17
9 8 7 6 6 5 4 4 6 7 7 6 5 5 6 5 6 7 6 7 7 7 7 8 8 8 7 5 4 3 2 3 4 4 3 3 4 4 4 4 4 5 5 4 4 4 4 3 4 4 5 6 7 7 7 6 5 6 7 8 9 10 11 12 13 14 13 14 15 15 16 15 15 14 14 14 15 14 13 13 12 11 10 10 12 15 17 18
10 8 7 6 5 3 3 5 7 8 6 4 3 4 5 5 6 7 6 6 7 7 7 7 7 8 6 4 3 3 2 4 4 3 3 3 4 4 4 4 4 4 5 5 6 5 4 4 3 4 5 5 6 6 6 5 5 6 6 7 8 9 11 11 13 14 14 15 15 16 15 15 15 15 14 14 14 12 13 13 12 12 11 11 14 17 18 19
12 9 7 5 4 3 3 5 7 7 5 2 2 3 4 4 5 7 6 6 7 7 7 6 7 7 6 4 3 3 2 3 4 3 3 4 3 3 4 4 5 5 5 6 6 5 4 4 3 4 4 4 5 6 6 5 5 6 7 7 8 9 10 11 13 14 15 16 16 17 17 16 16 15 15 15 14 13 15 14 13 12 11 12 15 18 19 20
13 10 7 6 3 3 4 5 7 7 4 2 1 2 4 4 4 5 6 6 7 7 6 6 6 5 5 5 5 5 4 4 4 4 4 4 3 4 4 5 5 6 6 6 6 5 5 4 4 4 4 5 5 5 5 5 5 6 7 8 8 9 11 12 13 14 15 16 17 18 18 18 17 16 17 16 14 14 15 14 13 13 12 13 16 18 20 20
13 11 8 6 4 4 4 5 6 6 4 2 0 2 3 4 4 5 6 7 8 7 6 5 5 4 4 6 6 6 4 4 4 4 4 4 4 4 5 5 6 7 7 7 7 6 5 4 4 4 5 5 5 5 5 6 5 6 7 8 9 10 11 13 14 15 17 18 18 19 19 20 19 19 19 17 15 15 15 15 14 13 13 14 17 19 20 21
13 11 8 5 4 4 4 4 6 5 3 2 0 1 3 4 5 5 6 7 7 6 6 5 5 4 5 6 6 5 4 4 4 4 4 4 4 4 5 6 7 7 7 7 7 6 5 4 4 4 5 5 5 5 5 6 6 7 8 9 10 11 12 14 15 16 17 19 20 20 21 21 21 21 20 16 15 14 15 15 15 14 14 16 18 20 21 22
12 10 7 4 4 3 3 4 5 4 3 2 2 2 3 5 5 5 5 7 7 6 5 5 4 4 5 6 6 5 4 4 4 4 4 4 4 5 6 6 6 6 6 5 5 4 3 3 4 5 5 5 6 6 6 7 7 9 9 9 10 12 13 14 15 17 18 20 21 22 23 22 23 23 19 16 15 14 15 16 15 15 16 17 19 21 23 24
9 7 5 4 3 3 3 3 3 3 2 2 2 2 4 5 5 4 5 6 5 5 4 3 4 5 5 6 5 4 4 4 4 4 4 4 5 6 6 7 6 5 4 4 2 2 2 3 4 5 6 6 6 6 7 8 9 10 10 10 12 13 15 15 15 17 18 19 22 23 25 25 23 20 16 16 17 16 17 17 16 16 17 19 21 23 24 24
6 5 5 4 2 2 3 3 3 3 2 2 2 3 5 5 5 4 4 4 4 3 3 5 6 6 6 6 5 4 4 4 4 4 4 4 6 7 6 6 6 5 3 3 2 2 3 4 5 6 7 6 7 7 7 8 10 11 11 12 14 15 15 15 16 18 18 20 22 23 25 24 20 17 17 17 16 16 19 19 18 18 18 20 22 23 24 25
6 6 5 4 2 3 3 3 3 3 2 2 3 3 4 4 3 3 2 2 2 4 5 7 7 7 7 6 5 5 5 5 4 4 5 5 7 7 6 5 5 4 3 2 1 2 4 5 6 7 7 7 8 8 8 9 11 12 12 13 14 16 16 15 17 19 20 22 22 22 25 25 21 19 18 16 17 19 19 19 19 19 20 21 23 23 23 25
5 5 4 4 2 3 3 2 3 2 2 3 3 3 2 2 2 1 2 2 4 6 7 8 8 8 7 6 6 5 5 5 5 5 6 7 7 6 5 4 4 3 2 2 2 3 4 5 6 7 8 8 8 9 9 10 12 12 13 14 14 15 16 17 19 20 22 22 22 23 26 27 23 19 18 18 21 21 20 20 20 21 21 22 23 23 24 26
5 4 3 3 2 3 3 2 2 2 2 2 2 1 0 0 1 1 2 4 6 7 8 8 8 8 7 6 6 6 5 5 6 7 8 8 7 6 5 3 3 2 1 1 2 4 5 5 6 7 8 8 9 10 11 11 12 13 13 14 14 15 17 18 19 20 21 22 23 23 26 29 25 22 22 22 22 21 20 19 20 21 21 22 23 23 25 27
3 3 3 3 2 1 2 2 1 1 1 1 1 1 1 1 1 2 4 5 7 8 7 7 7 8 7 6 6 6 6 6 6 8 9 8 7 5 4 2 2 1 0 1 2 4 5 6 6 7 8 9 9 10 11 12 13 13 14 14 16 16 17 18 18 19 20 22 25 26 29 30 26 24 24 23 23 23 22 18 18 20 20 22 23 23 25 27
0 0 1 2 1 1 2 1 1 1 1 1 0 0 1 2 3 4 5 6 7 8 7 6 6 7 6 6 6 6 6 6 7 8 9 8 7 5 4 3 2 1 1 1 3 4 6 6 6 7 8 9 10 10 11 13 13 13 14 15 17 17 18 18 18 19 21 23 26 28 32 32 26 24 24 23 24 25 23 19 19 20 20 21 21 23 25 26
2 2 1 0 1 1 1 1 1 1 1 1 1 2 2 3 4 5 6 7 7 7 7 6 6 6 5 6 6 7 7 7 8 9 9 8 7 5 4 3 2 2 2 2 4 5 6 6 7 8 9 10 10 10 12 14 14 14 14 16 17 18 19 18 18 20 23 25 26 26 31 32 27 25 25 24 25 26 23 19 19 20 19 20 21 22 24 25
3 2 1 1 2 2 2 1 2 1 1 1 2 2 3 4 5 5 6 7 7 6 5 5 6 6 5 6 7 7 8 8 9 9 9 8 7 5 4 3 3 3 4 4 5 6 6 7 8 10 10 10 11 12 14 15 16 15 16 17 17 19 20 18 19 23 25 25 26 26 30 32 27 24 23 24 27 27 22 19 19 18 18 19 21 22 23 24
2 2 2 2 2 2 2 2 2 2 1 1 1 2 3 4 5 5 6 7 7 7 6 6 6 7 7 7 8 8 8 9 9 9 9 8 7 6 5 5 4 5 5 5 6 6 7 9 10 10 10 11 12 13 14 15 15 15 16 17 18 20 21 20 22 25 25 27 29 29 30 30 26 22 21 24 28 25 20 18 17 16 18 20 20 21 22 23
1 1 1 1 2 2 3 2 2 2 1 2 2 3 4 4 4 5 5 7 8 8 8 7 7 7 8 8 8 8 9 9 10 10 10 9 7 7 7 6 6 6 5 6 7 7 8 10 11 11 11 11 12 13 14 14 14 15 16 17 18 20 21 21 23 24 26 31 32 31 31 29 23 21 22 23 26 23 18 17 15 15 17 19 20 21 22 24
1 1 0 1 2 2 2 1 2 3 3 3 3 3 4 5 5 5 6 6 7 8 7 6 7 8 8 8 8 9 9 10 10 10 10 9 9 8 7 7 7 7 6 7 7 8 10 10 10 11 11 11 11 12 12 12 13 15 16 18 19 20 21 22 23 25 28 33 35 33 32 27 22 22 21 20 22 20 17 15 13 14 16 17 19 21 22 24
0 0 1 2 2 2 1 1 2 4 4 4 4 4 4 5 5 6 6 6 6 7 7 7 7 7 8 8 9 9 10 11 11 11 11 10 10 10 9 8 8 8 7 7 8 9 10 10 10 11 11 11 12 11 11 12 14 15 17 19 20 20 21 22 25 26 29 33 36 33 31 29 23 18 15 17 21 17 14 14 12 13 16 18 20 21 23 25
1 1 2 1 1 1 2 2 2 4 4 5 5 5 5 5 5 6 7 8 9 8 8 8 8 9 9 9 10 10 11 11 11 12 11 11 11 10 10 10 9 9 9 9 9 10 11 11 12 12 12 13 13 13 14 14 15 17 18 18 19 19 20 24 27 28 30 31 30 29 29 27 19 13 16 19 19 15 14 14 13 14 18 19 20 21 23 26
1 1 2 1 1 1 2 1 1 3 5 6 7 6 6 6 7 9 10 11 10 9 9 9 9 10 10 11 11 12 12 12 13 13 12 12 12 11 11 10 11 11 10 10 10 11 12 12 13 14 14 15 15 15 15 15 16 17 17 17 19 20 21 24 26 29 31 27 24 24 18 15 18 20 21 19 16 14 16 16 13 15 19 21 21 22 24 26
1 2 1 1 0 1 2 3 4 5 7 8 8 8 7 7 9 10 11 12 11 10 10 10 9 9 10 11 11 11 12 13 13 13 14 13 13 12 12 11 11 12 11 11 12 12 12 12 13 14 15 16 17 17 16 16 16 17 18 19 19 21 23 24 26 28 27 21 23 24 12 13 28 29 19 17 19 16 17 16 15 15 19 22 22 23 25 27
2 1 1 1 2 2 3 4 6 7 9 9 9 9 8 8 9 10 10 9 8 9 10 10 9 9 9 9 10 10 10 11 11 12 13 14 13 13 13 13 13 13 13 13 12 13 13 14 15 15 16 17 18 18 18 17 17 18 20 21 21 22 23 24 26 27 25 24 25 23 14 16 27 29 23 23 21 14 15 16 15 16 20 22 23 24 26 28
3 2 2 2 3 3 3 4 5 7 9 9 10 9 9 8 8 9 6 3 4 7 8 9 10 11 12 11 11 11 10 11 11 11 12 12 13 13 13 14 14 14 15 15 15 16 16 17 17 17 17 18 19 19 19 18 18 19 20 22 23 22 23 25 27 25 22 20 19 17 13 10 18 30 30 22 16 11 14 16 15 18 23 24 25 25 27 29
5 4 3 3 3 3 4 4 6 8 9 10 10 10 9 8 8 8 4 1 4 7 6 6 8 10 11 11 11 11 11 12 12 12 13 13 13 13 13 14 15 15 16 17 18 18 18 18 19 19 19 19 19 18 18 19 18 19 21 23 23 23 25 24 24 22 15 11 14 13 9 5 15 36 28 13 12 13 15 17 15 19 25 25 26 26 29 31
6 6 5 4 4 4 5 6 7 9 10 10 10 10 9 8 7 4 1 3 6 7 7 7 7 8 9 9 10 10 11 12 13 14 14 14 14 13 14 15 16 17 17 18 19 19 19 19 20 20 20 20 19 19 19 19 19 20 21 23 24 24 24 22 20 17 8 7 9 7 7 4 9 28 25 12 15 17 17 17 15 20 26 26 27 27 30 33
7 7 7 6 5 6 6 7 9 10 10 10 10 9 8 8 6 1 1 5 8 7 7 8 8 9 10 11 11 11 11 12 13 14 14 14 14 14 15 15 16 16 17 18 17 17 17 17 19 20 20 20 20 19 19 19 19 20 20 22 22 19 17 14 12 7 2 4 4 5 7 5 8 23 25 16 18 20 18 16 16 22 26 27 29 29 31 35
8 8 8 7 7 8 8 8 10 11 11 10 9 9 8 7 5 5 5 7 6 5 7 9 10 10 10 11 12 12 13 13 13 14 15 15 15 16 16 15 16 15 15 16 17 18 19 19 19 19 19 19 19 18 18 18 19 18 18 19 15 9 8 6 4 3 4 7 6 7 6 8 22 30 23 18 22 18 14 15 19 25 27 29 32 31 32 36
8 9 9 9 9 9 9 9 11 11 11 11 10 9 8 5 4 5 7 7 6 8 12 13 13 12 11 12 13 12 13 13 14 14 14 15 15 16 15 15 16 15 14 17 19 18 17 16 15 15 15 15 15 16 16 17 16 17 18 16 7 1 4 4 4 4 6 9 9 11 8 12 25 26 21 23 22 12 11 17 22 26 28 31 34 33 34 37
8 9 9 9 10 9 9 10 11 12 12 11 10 9 8 6 5 7 8 8 9 12 13 14 13 12 12 13 13 13 13 13 13 13 13 14 15 15 16 16 16 16 17 17 16 13 11 11 13 13 12 11 12 15 17 18 18 19 18 13 7 5 3 4 4 3 7 12 11 12 8 8 17 24 25 23 14 9 14 20 22 26 29 31 34 34 35 38
8 8 9 9 10 9 10 11 12 12 12 11 11 10 9 7 7 9 9 9 10 12 13 14 13 13 13 13 12 11 11 11 12 13 14 15 16 17 18 17 16 16 15 13 11 10 10 11 12 13 13 14 16 19 20 20 17 14 12 9 10 11 9 9 10 11 12 13 11 11 11 14 24 32 24 13 10 13 17 19 21 26 30 32 33 34 35 38
7 8 9 9 10 10 11 13 13 13 12 12 11 11 11 9 9 10 11 11 12 14 15 14 13 12 11 10 8 9 10 11 12 14 15 15 16 16 15 14 14 14 13 13 12 10 9 10 12 15 18 20 21 20 20 18 14 12 12 13 15 15 13 12 13 12 8 7 9 11 15 21 27 28 19 11 12 18 17 18 23 28 31 32 32 33 36 37
7 7 8 9 10 12 13 13 13 13 12 12 12 12 12 12 11 12 12 13 13 14 14 13 11 10 9 8 9 10 11 11 13 14 15 15 14 13 12 12 12 13 13 14 13 13 14 16 19 19 20 20 19 18 19 18 17 18 18 17 16 14 11 10 6 5 2 3 8 12 18 21 18 20 23 19 19 24 20 19 27 31 31 31 32 34 35 36
7 7 9 10 11 12 13 13 12 12 12 12 12 12 12 12 11 11 12 13 13 13 13 12 10 9 9 10 11 12 13 13 14 15 16 15 12 11 12 13 15 15 15 14 14 14 16 18 19 18 17 17 17 18 19 19 19 19 19 18 16 12 10 8 4 3 2 1 6 12 18 22 21 22 25 26 29 28 21 24 34 34 31 31 34 35 36 37
8 9 11 11 12 12 12 11 11 11 11 12 11 10 11 11 11 12 12 13 13 13 12 11 9 10 10 12 14 15 15 15 15 15 15 13 11 13 16 16 15 14 14 14 14 15 16 14 14 16 18 18 19 19 19 20 18 18 19 19 19 16 14 12 8 5 3 2 5 10 14 17 19 20 26 31 32 27 26 35 38 33 32 33 34 35 37 40
10 11 12 11 11 10 10 10 10 10 10 10 10 10 11 13 13 13 13 13 13 12 11 11 11 11 13 14 15 15 16 16 16 15 14 14 16 17 15 13 13 14 14 15 16 17 18 15 15 19 22 20 20 20 21 21 20 19 20 21 21 19 16 15 14 14 10 4 1 3 9 19 23 25 32 33 29 30 36 39 35 33 34 34 35 38 40 42
11 12 11 10 9 9 9 9 9 9 9 9 10 10 12 13 13 12 12 13 12 12 12 12 12 13 14 15 14 15 16 16 16 16 15 16 16 14 12 13 15 16 17 18 18 18 17 17 20 25 26 24 23 22 25 26 25 24 23 23 24 22 16 11 9 14 14 10 8 3 9 30 40 36 35 33 32 37 40 36 34 35 35 37 39 41 43 45
11 11 10 9 8 8 8 9 8 8 9 9 10 11 11 12 13 12 12 12 12 12 12 12 12 13 13 14 14 15 16 16 17 16 14 15 14 14 15 17 17 17 18 19 19 19 18 19 23 27 27 24 23 24 25 25 24 22 21 22 22 22 20 13 7 12 14 14 16 9 7 33 47 37 33 36 38 38 35 33 35 36 37 41 44 45 46 46
11 10 9 8 8 8 9 8 8 9 9 10 10 11 12 12 12 12 11 11 12 12 12 12 12 12 13 14 15 15 16 16 15 14 14 14 15 15 16 17 18 18 19 18 18 18 17 16 21 27 28 26 24 22 20 18 17 16 17 19 20 21 23 19 17 22 19 16 17 8 7 31 45 39 36 38 37 34 33 33 34 37 42 46 47 48 47 46
10 9 8 8 7 8 9 9 9 10 10 11 11 12 12 13 12 11 11 11 12 12 12 12 13 13 14 14 15 16 16 14 13 14 16 16 16 16 16 18 18 18 18 18 19 19 16 15 18 21 21 20 18 15 14 16 18 20 23 24 24 24 23 21 25 25 20 22 21 9 12 36 45 41 38 35 34 35 34 32 34 40 46 48 48 47 45 44
9 8 8 7 8 9 9 9 10 10 10 11 12 12 12 12 11 11 12 12 12 12 12 13 13 13 14 15 15 15 15 14 15 16 16 16 16 17 17 18 18 18 20 20 20 21 20 20 21 17 10 9 12 14 18 24 26 28 30 29 30 30 26 25 25 20 18 25 25 18 26 47 49 40 35 34 36 37 35 34 38 43 47 47 45 44 44 44
8 8 7 8 8 8 8 9 9 10 11 11 12 11 11 11 11 12 12 12 12 12 12 12 13 13 14 14 15 15 15 16 16 16 17 17 18 17 18 18 19 20 20 20 22 22 22 24 24 21 19 19 23 26 29 31 32 33 34 33 32 32 31 29 25 24 27 31 32 34 41 49 47 39 36 37 37 37 38 41 45 46 46 44 44 45 45 45
7 7 8 8 7 7 8 9 10 10 11 11 11 11 11 11 12 12 12 12 12 12 13 13 13 13 14 15 16 16 16 16 16 18 18 18 18 18 19 20 21 21 20 21 21 20 23 26 25 24 26 27 29 31 30 31 33 35 33 31 29 28 29 30 27 29 32 28 30 37 40 41 43 40 36 36 37 39 44 48 49 47 45 45 47 47 48 49
7 8 8 8 8 8 10 11 10 11 11 12 12 11 11 11 12 12 12 12 12 13 14 13 13 14 15 15 16 17 17 17 18 18 18 18 19 20 21 21 21 21 20 20 19 20 22 26 27 27 27 27 29 30 29 30 31 30 28 28 29 27 26 28 26 26 28 27 29 35 36 37 39 36 32 34 38 44 49 50 48 46 46 48 50 51 52 54
8 9 9 9 9 10 11 11 11 12 12 12 12 12 11 11 12 12 13 13 14 14 14 14 13 14 15 15 16 16 16 17 18 19 19 20 21 21 22 22 21 21 21 21 22 23 22 25 27 28 29 30 28 26 27 28 27 28 30 29 27 22 19 19 19 20 22 27 30 33 35 35 32 28 30 35 40 47 51 49 47 46 48 51 53 54 56 57
10 10 10 10 11 11 11 12 12 12 13 13 13 12 12 12 13 13 14 15 15 14 14 14 14 15 15 16 16 16 16 18 19 20 20 21 22 22 23 23 23 24 24 24 25 24 22 25 26 27 31 30 25 23 24 24 27 33 31 22 18 15 14 15 19 23 25 27 29 29 31 32 28 27 33 38 43 49 51 49 48 48 51 54 55 57 58 59
11 11 12 12 12 12 12 13 13 13 13 13 13 13 14 14 14 14 14 14 14 14 15 15 15 16 16 16 17 16 17 18 19 20 20 21 22 22 23 24 25 25 25 25 25 24 23 25 26 26 28 29 26 24 23 26 31 29 19 16 17 16 15 17 22 27 29 30 29 27 27 30 31 33 37 42 47 52 52 50 50 50 54 56 57 58 60 61
12 12 13 13 13 13 13 13 14 14 13 14 14 14 14 14 14 14 15 14 14 15 15 16 16 17 17 16 17 16 17 18 18 19 20 21 22 22 22 23 22 22 23 22 21 22 22 23 25 22 22 26 27 24 27 31 24 11 10 18 19 16 18 23 25 28 31 30 27 26 27 31 33 37 43 49 52 54 53 53 53 54 56 57 59 60 61 62
Wind_Direction
208 210 205 209 229 258 293 315 319 316 310 302 293 286 289 298 293 251 205 180 173 176 166 155 152 148 145 144 144 139 136 143 154 152 179 206 182 170 185 196 215 230 245 242 227 224 238 237 225 232 238 233 228 227 233 235 231 233 237 240 251 262 267 273 276 277 281 288 289 285 284 281 280 281 281 281 281 282 278 270 266 265 275 288 285 282 291 301
208 214 215 218 230 252 273 302 310 304 300 295 286 280 284 287 262 222 193 177 176 180 167 155 152 148 148 150 149 146 147 159 181 194 201 200 184 185 189 196 217 231 240 245 243 233 230 234 240 250 252 242 236 230 227 226 226 232 248 260 267 275 280 281 281 283 284 287 290 287 285 280 279 280 280 281 281 279 271 266 268 272 282 289 283 288 297 306
208 211 213 216 225 242 255 286 306 301 301 296 283 275 274 265 228 202 184 175 174 174 162 153 151 148 150 153 151 150 158 183 213 217 204 195 192 195 199 202 217 227 228 234 235 231 229 236 246 253 256 248 237 224 219 221 229 241 259 271 277 282 282 282 281 282 283 285 288 289 289 285 282 280 278 279 279 275 267 265 271 276 281 280 284 293 301 309
206 206 207 210 221 242 261 287 315 316 310 298 275 262 256 236 200 185 175 170 169 162 153 147 146 148 150 153 151 157 197 215 216 215 201 197 201 208 215 213 222 227 226 223 219 220 221 225 234 241 247 242 233 221 219 225 240 254 264 270 276 281 280 279 278 278 282 285 286 287 288 286 283 278 273 273 275 272 264 265 273 275 272 277 288 298 305 311
207 207 207 210 226 258 289 304 323 325 314 297 265 244 233 215 186 172 162 164 164 153 148 147 149 152 154 159 164 171 201 202 205 218 210 210 214 218 228 229 232 232 231 222 209 206 211 216 224 235 245 246 238 228 229 236 250 262 268 272 274 278 276 275 277 279 284 288 290 288 287 287 282 276 269 268 273 270 260 264 273 272 270 280 292 300 306 310
208 210 209 215 242 285 305 315 330 328 315 303 262 228 210 198 178 164 155 156 158 155 153 153 154 155 160 176 189 190 198 209 215 230 229 228 229 231 237 238 239 235 233 223 207 201 205 214 220 232 249 254 247 236 236 244 254 266 274 282 280 278 275 277 283 285 287 291 295 296 295 292 286 279 272 270 273 263 255 262 272 271 270 281 292 300 305 308
204 208 213 222 250 288 295 313 333 332 316 314 260 207 191 180 165 154 153 154 161 165 161 156 157 161 177 207 224 217 231 241 222 228 236 237 237 237 235 231 236 233 226 220 214 207 203 212 218 229 244 249 250 241 239 246 256 268 282 291 290 287 285 289 292 290 291 295 300 301 296 292 290 288 283 281 276 261 252 260 272 270 269 280 292 300 305 310
197 205 214 225 258 287 287 306 333 335 316 315 172 169 164 154 135 140 154 163 169 168 167 163 165 177 199 222 227 218 224 219 209 225 235 236 235 231 228 224 224 222 219 213 210 209 204 208 216 229 239 243 255 255 249 251 254 271 288 295 297 298 298 300 300 299 302 303 304 302 294 289 289 289 289 291 283 263 252 258 270 269 268 280 291 300 307 314
192 203 214 235 274 285 279 298 326 331 317 325 27 115 122 123 110 119 152 170 176 175 177 174 173 190 208 217 215 204 202 203 212 226 231 233 230 225 222 218 213 212 212 205 200 203 205 211 225 236 244 248 265 266 263 262 262 281 294 297 301 303 303 305 305 308 308 305 303 301 295 289 288 289 295 299 286 265 253 258 268 268 268 279 290 302 311 318
191 203 217 247 267 266 271 295 319 327 322 341 6 76 105 116 111 116 146 166 175 178 177 172 181 202 212 213 206 197 200 211 219 225 230 227 221 223 222 219 215 210 213 209 197 196 210 230 236 245 255 261 269 266 271 275 278 292 297 299 303 305 306 306 308 310 307 303 301 301 299 294 291 292 298 301 289 272 261 262 267 266 268 278 291 303 313 319
189 200 221 242 244 252 281 302 325 336 333 354 21 89 113 125 128 132 147 154 155 164 175 189 209 213 213 210 203 203 210 218 225 231 230 220 220 224 225 225 218 212 219 219 201 210 250 259 247 251 258 260 268 273 279 283 290 298 300 302 304 306 307 307 309 308 305 303 300 303 302 298 296 295 297 298 291 280 270 266 266 265 268 279 291 301 311 319
184 198 220 232 241 280 297 309 337 351 359 22 49 100 125 135 138 145 151 139 135 174 214 225 226 219 215 208 204 214 220 225 235 236 228 223 228 227 226 225 215 208 208 205 202 236 264 272 259 249 252 258 267 279 286 288 295 299 301 305 306 307 308 309 310 307 306 303 302 306 303 301 304 300 294 293 290 284 275 267 265 266 271 280 288 297 311 320
186 202 220 232 265 306 304 317 347 2 24 56 76 106 131 137 136 148 155 145 176 221 234 234 231 222 217 211 208 217 224 230 239 239 233 228 231 229 225 223 214 205 195 196 221 250 264 271 263 251 249 257 263 276 287 290 295 299 302 304 305 308 311 314 312 307 308 306 306 308 301 305 313 302 292 290 291 291 283 271 267 270 274 279 285 296 311 320
194 198 211 221 267 313 314 329 350 3 34 65 81 104 128 128 130 167 186 211 227 236 241 241 236 225 220 218 213 218 224 230 238 239 237 233 233 232 226 215 206 206 196 202 251 275 272 265 262 255 250 256 262 272 283 287 292 296 300 301 303 309 312 313 310 307 309 306 308 304 296 307 315 302 294 291 294 297 287 275 269 270 275 278 283 294 311 319
204 211 225 234 271 308 326 342 354 16 48 74 94 119 161 216 275 253 230 238 245 245 245 243 236 224 221 220 215 219 223 226 234 240 239 235 234 235 229 210 205 227 195 191 262 276 273 268 262 254 253 259 264 270 279 285 289 293 295 296 301 307 307 307 306 307 308 305 306 301 295 306 312 305 300 294 296 298 290 280 271 270 274 278 283 294 310 317
214 226 245 262 279 326 356 1 19 55 82 103 126 150 256 270 257 243 243 251 251 247 244 238 229 221 223 222 218 223 224 223 232 240 241 239 238 236 228 212 223 255 194 205 260 265 269 271 262 258 260 261 265 273 280 285 290 293 292 294 300 303 300 302 304 305 306 303 305 301 296 303 309 306 299 293 296 299 296 290 277 272 276 280 287 297 309 314
104 176 256 284 323 41 36 42 80 87 95 91 95 269 273 266 258 247 248 252 250 246 240 236 227 218 224 224 222 231 229 228 235 241 245 245 242 234 223 217 230 270 291 247 256 267 274 274 265 263 264 265 271 277 280 286 292 295 295 296 299 298 295 300 305 305 306 305 306 303 300 304 309 305 298 295 298 299 298 295 280 275 279 286 292 301 308 312
56 54 14 342 85 94 101 104 81 71 38 5 323 299 273 266 265 258 252 248 248 247 241 243 231 221 230 228 228 238 232 232 241 243 248 249 243 233 224 224 243 273 285 273 266 272 279 279 268 261 266 271 276 279 280 287 294 297 297 296 295 294 296 304 309 307 309 308 306 304 302 303 304 300 298 300 300 297 297 294 281 277 283 291 297 302 308 311
47 54 63 101 115 121 123 105 90 83 44 4 324 305 279 269 268 265 254 246 246 246 247 257 238 228 240 234 231 238 235 238 247 249 254 255 249 242 232 235 253 262 274 278 276 278 280 278 268 264 272 277 279 284 286 290 294 295 295 294 294 297 303 311 312 310 312 310 307 306 304 302 300 298 299 301 297 294 298 293 280 280 288 295 299 303 309 313
31 59 74 90 94 90 93 95 95 90 60 5 345 326 297 283 276 271 260 251 247 247 259 268 244 234 249 243 235 240 242 247 253 256 262 262 256 253 247 250 254 256 267 277 278 279 280 279 273 271 278 282 283 286 287 288 290 292 295 298 299 302 309 315 313 313 315 312 310 310 306 300 299 300 302 297 291 293 296 289 283 286 291 295 300 306 311 314
4 17 55 75 84 78 69 67 72 73 48 352 339 329 315 303 288 279 273 263 253 254 265 264 246 247 258 248 241 245 249 255 258 261 266 265 263 263 259 259 259 261 267 272 275 275 274 277 275 272 277 284 285 285 285 285 290 296 300 302 304 305 309 313 313 314 316 313 311 312 306 299 299 303 298 289 287 292 289 281 284 288 291 298 304 309 313 315
354 308 355 93 106 90 56 33 57 48 28 7 348 329 314 303 294 285 281 273 259 254 259 259 252 255 257 250 248 251 252 259 263 265 268 268 268 268 266 264 263 268 272 270 271 270 271 276 275 271 276 280 282 285 287 290 300 307 307 306 307 308 309 311 312 315 317 314 312 313 306 300 304 301 292 287 288 288 279 277 284 289 297 306 309 312 314 316
91 245 143 125 115 96 79 95 77 51 30 14 358 339 315 300 301 295 287 284 272 261 259 262 258 253 256 255 255 254 255 262 266 268 270 271 271 269 269 272 271 273 275 273 272 271 272 277 276 275 277 279 284 290 296 301 309 314 314 310 308 309 308 309 311 313 315 313 312 312 305 302 308 297 287 297 295 283 272 277 288 297 309 313 311 315 316 318
101 178 159 129 99 119 152 138 74 42 22 1 346 329 313 302 303 308 303 295 286 273 265 265 264 262 263 260 257 258 259 262 266 270 272 272 273 272 274 279 278 279 279 276 277 276 277 280 280 279 279 281 286 292 299 306 311 316 317 312 307 305 305 307 310 311 313 313 312 313 308 306 310 298 297 307 297 279 272 281 294 308 316 317 313 316 319 321
73 195 168 121 77 150 192 203 324 349 344 336 331 318 306 298 297 305 307 300 290 276 266 265 266 265 263 261 263 263 264 266 267 269 271 273 275 275 279 281 279 283 282 278 281 281 282 285 285 283 281 283 287 290 297 304 308 315 316 312 307 304 304 306 309 312 315 315 311 315 318 306 303 303 303 306 299 282 276 282 295 310 318 318 316 320 323 325
250 200 179 165 122 229 240 257 287 303 306 312 319 314 304 300 299 303 306 299 286 273 264 260 260 262 260 262 266 268 269 268 266 268 271 273 274 275 279 280 281 283 282 283 284 283 284 287 290 289 284 285 289 290 293 297 305 313 315 315 311 305 305 306 307 312 312 308 305 307 300 281 299 309 308 306 306 288 274 283 293 307 319 320 319 323 327 328
254 212 211 234 246 249 252 271 286 292 297 301 306 308 305 303 302 306 310 305 288 274 262 255 253 258 261 265 271 276 273 267 269 274 274 273 275 276 278 281 283 282 282 286 283 282 286 288 292 293 289 287 289 291 290 291 301 310 313 317 312 306 306 304 306 308 304 301 302 298 282 272 292 309 315 311 306 286 276 287 290 305 321 322 322 327 330 330
265 248 257 253 252 256 265 284 295 300 304 304 304 306 304 305 309 309 317 328 302 288 271 260 255 258 267 274 277 278 274 271 275 280 282 281 279 280 280 282 284 283 283 283 281 284 286 286 289 289 289 288 288 292 291 289 295 303 311 315 312 308 304 303 304 304 303 304 300 293 285 263 280 304 315 313 301 288 293 291 287 306 321 324 325 329 332 332
265 259 260 257 256 266 283 301 312 315 314 311 308 306 302 306 309 310 313 290 292 295 286 274 266 266 274 279 281 280 277 277 277 280 286 287 285 285 284 284 286 285 284 283 283 286 286 286 287 285 286 289 290 293 292 290 290 297 307 311 310 307 302 302 300 299 302 295 287 285 275 233 291 306 315 316 299 301 305 295 290 310 322 325 327 331 334 333
265 263 258 253 260 274 295 312 318 321 320 316 311 306 305 304 306 320 321 267 291 296 291 288 282 279 283 289 292 288 284 284 283 284 285 286 288 288 287 288 288 285 286 286 285 286 286 287 286 283 284 288 290 290 291 290 288 293 303 307 310 308 302 300 294 294 302 279 269 255 252 224 296 308 317 322 309 310 308 300 300 315 323 326 328 332 335 335
267 263 258 255 264 279 297 310 317 322 322 317 313 310 307 301 292 254 205 287 304 305 304 308 298 287 287 292 296 297 295 291 287 286 286 286 288 288 289 291 290 291 292 290 289 289 290 290 289 286 284 284 286 287 288 288 286 289 298 308 313 310 305 301 287 281 266 268 247 214 265 249 248 298 317 320 314 314 307 305 315 323 327 329 329 331 335 337
270 265 261 261 270 283 294 303 313 320 320 316 313 311 308 302 280 248 265 299 312 316 324 327 316 302 296 296 297 297 298 293 288 287 286 287 288 289 291 290 290 294 294 293 294 294 293 292 291 288 285 283 282 283 285 287 285 283 293 310 316 318 325 309 263 256 236 251 254 238 265 267 268 290 314 321 321 320 308 318 329 331 332 331 330 329 331 335
274 269 265 267 277 287 292 301 310 315 317 313 309 308 306 298 277 276 290 295 296 308 317 319 312 303 298 301 302 300 298 294 291 290 289 291 291 291 293 292 292 290 287 292 298 298 297 296 293 291 289 285 279 281 286 288 284 280 293 307 302 332 0 303 271 291 269 268 262 252 269 279 279 297 324 326 326 326 321 333 336 335 337 333 330 328 327 332
281 274 269 273 282 289 294 301 307 310 311 307 305 304 294 280 284 300 305 296 293 305 313 317 314 304 297 300 302 301 300 298 296 296 297 297 296 295 296 295 294 290 288 293 296 294 292 293 297 296 293 288 282 284 288 289 286 284 290 292 265 250 255 255 265 263 288 299 277 256 262 262 285 311 326 329 333 337 335 338 337 337 338 333 329 327 326 329
290 279 274 278 285 290 296 301 304 305 305 302 300 294 283 281 293 303 306 302 300 305 309 312 311 305 300 299 299 301 300 298 300 302 302 301 299 298 297 295 294 292 291 292 293 292 283 283 294 296 293 293 290 290 291 291 289 283 281 273 269 269 249 248 269 267 284 308 289 255 243 259 295 312 324 345 350 342 340 336 336 339 336 331 328 326 326 329
296 285 280 282 286 291 296 299 301 300 298 296 293 288 287 289 294 298 302 301 302 306 307 308 307 305 305 304 306 310 307 303 305 307 307 307 304 300 298 296 295 295 294 290 291 293 282 279 291 297 296 296 294 293 291 288 280 271 276 280 282 280 263 257 273 276 278 298 285 263 261 279 301 313 324 346 340 338 340 334 338 339 333 330 328 327 328 331
295 289 286 286 289 293 295 297 297 296 293 290 288 291 295 295 293 296 298 299 304 308 307 307 306 303 303 305 310 315 314 311 311 311 311 312 308 302 301 301 300 300 297 292 290 288 285 286 293 297 296 296 295 294 292 286 277 271 277 285 287 284 267 251 266 301 307 275 276 269 273 283 291 303 315 325 330 333 333 334 340 336 331 330 328 329 331 331
293 292 291 292 294 295 296 296 295 293 290 287 290 297 299 299 299 298 298 300 305 307 306 303 299 296 297 302 307 312 313 312 312 312 312 310 304 302 306 306 303 300 298 296 293 290 292 296 299 299 296 298 299 295 292 290 283 278 278 281 279 274 262 244 238 295 305 272 285 282 282 282 277 289 311 325 330 331 330 335 338 334 330 331 330 330 331 330
297 297 298 299 299 297 298 297 295 293 290 290 297 301 300 302 303 299 299 301 302 303 302 296 291 293 295 300 305 308 309 311 312 312 311 307 301 305 308 304 302 302 301 300 295 293 296 295 294 298 298 299 299 297 295 295 292 286 281 276 274 270 264 256 239 234 250 264 291 298 296 288 286 297 314 325 332 335 335 334 334 333 331 331 330 329 328 329
303 303 304 304 303 303 304 301 298 296 295 298 301 300 299 300 301 300 299 299 300 300 298 293 290 290 294 301 303 305 308 310 311 310 306 301 302 307 307 303 305 307 304 301 297 297 296 286 282 293 296 297 300 301 299 295 293 288 283 279 277 273 268 267 260 250 248 240 226 303 294 286 291 305 314 325 335 336 335 334 332 331 329 328 328 327 327 329
306 306 307 307 307 309 308 305 304 302 302 305 305 303 303 302 303 304 301 300 300 297 294 292 290 290 295 301 302 305 307 307 308 308 303 302 306 307 305 306 308 307 303 300 299 298 295 285 281 288 294 298 301 300 296 292 290 288 287 285 282 278 270 269 272 258 246 233 234 232 282 284 291 304 316 327 335 332 334 335 327 324 324 325 327 328 328 328
307 307 307 308 309 310 310 310 310 309 310 311 309 307 307 306 307 308 305 303 301 298 296 294 293 294 297 300 303 305 306 305 307 306 302 304 308 305 305 307 307 305 303 301 299 297 293 287 284 288 296 302 302 299 295 293 292 292 291 290 287 281 269 255 257 274 264 243 246 244 268 284 292 307 320 327 330 331 335 332 321 319 323 327 329 328 329 328
307 305 306 307 306 309 312 313 313 314 315 313 310 310 309 309 311 310 308 306 303 303 302 299 299 301 301 304 305 305 307 307 306 304 303 306 308 307 306 306 306 305 303 301 299 298 296 290 288 294 301 304 303 303 301 300 302 303 302 299 293 286 280 271 266 275 275 256 250 244 260 280 292 309 321 326 330 331 333 325 318 322 327 329 330 329 329 328
304 305 309 311 310 311 312 311 311 311 311 311 310 310 309 309 309 309 308 308 308 307 307 305 304 304 305 306 304 305 307 305 301 302 305 307 310 309 306 305 306 304 302 300 298 298 296 289 290 300 310 314 312 313 312 310 311 308 304 302 297 292 291 286 277 273 270 266 261 236 254 280 296 312 320 329 332 329 328 320 318 327 331 330 330 330 330 329
307 310 314 317 316 314 313 312 313 312 312 312 311 310 310 309 307 306 307 309 309 309 309 308 308 307 307 305 303 304 304 300 298 301 305 309 309 308 307 307 306 304 303 301 298 297 291 285 287 291 292 298 301 303 307 307 306 303 302 300 297 294 291 288 282 269 262 271 265 244 263 286 302 315 324 333 333 326 323 319 322 331 332 330 330 330 331 331
313 318 322 323 320 317 319 322 321 320 319 316 316 316 314 311 309 308 310 313 313 314 314 312 311 310 308 305 304 304 303 302 300 300 305 308 307 307 307 306 306 306 304 302 300 297 290 287 290 285 275 280 291 297 301 302 300 300 302 301 298 296 293 288 276 264 269 274 269 267 278 291 305 319 328 332 329 323 323 325 330 333 333 331 331 331 331 330
320 326 328 331 330 326 328 328 326 326 325 324 323 323 319 315 313 314 317 318 317 318 316 316 316 311 307 306 305 304 305 305 303 302 306 308 307 308 307 307 307 306 305 303 301 297 291 291 295 291 288 293 298 300 301 299 299 300 303 305 304 301 297 288 277 281 287 276 272 287 294 294 304 321 330 327 324 324 327 331 334 335 334 332 331 330 329 328
327 331 331 333 333 328 327 328 327 325 325 324 324 324 321 318 317 319 320 319 319 319 317 317 316 309 306 307 304 305 309 309 305 305 308 309 309 308 308 309 309 307 307 306 302 300 295 295 299 298 297 302 304 305 305 302 301 302 305 310 310 306 302 295 292 302 296 272 278 303 306 299 308 325 327 322 324 327 328 332 334 334 332 329 328 328 327 326
328 330 330 329 328 326 326 325 324 324 322 322 322 322 321 319 318 320 319 317 317 318 315 315 313 307 307 306 304 308 312 309 306 307 310 310 310 310 311 311 310 310 310 307 304 304 299 296 302 302 302 308 311 310 310 307 305 307 309 314 316 316 316 312 316 326 309 289 299 313 309 306 316 324 318 319 325 326 327 331 331 331 329 327 327 326 325 326
329 329 328 327 326 326 324 322 322 322 320 319 319 319 319 319 318 317 316 315 317 318 315 314 312 309 308 307 306 308 306 304 306 309 311 310 310 312 312 312 312 312 311 308 307 307 300 298 304 304 304 311 319 317 315 313 310 309 311 322 335 337 336 334 335 339 328 317 321 318 308 310 317 316 314 320 324 324 325 328 329 329 328 327 326 324 324 324
329 327 325 325 325 324 321 319 318 318 316 315 316 317 316 316 316 315 315 315 315 316 314 313 312 311 311 310 309 307 304 305 308 309 310 310 311 313 311 311 312 311 310 310 308 307 305 302 306 307 303 309 320 321 318 316 311 308 317 345 349 341 337 337 337 339 335 329 326 320 311 312 314 313 315 319 322 324 325 327 330 330 327 325 323 322 322 322
324 322 321 320 321 320 318 316 315 314 314 314 315 316 315 316 316 316 316 315 315 315 313 312 313 313 314 313 310 309 309 309 310 310 311 312 312 314 313 312 312 311 310 311 309 310 311 306 307 307 299 304 317 321 320 319 315 316 348 348 340 339 340 335 332 336 336 331 326 319 311 310 312 315 319 320 323 324 325 327 329 328 325 323 321 320 319 318